CST,Max TemperatureF,Mean TemperatureF,Min TemperatureF,Max Dew PointF,MeanDew PointF,Min DewpointF,Max Humidity, Mean Humidity, Min Humidity, Max Sea Level PressureIn, Mean Sea Level PressureIn, Min Sea Level PressureIn, Max VisibilityMiles, Mean VisibilityMiles, Min VisibilityMiles, Max Wind SpeedMPH, Mean Wind SpeedMPH, Max Gust SpeedMPH,PrecipitationIn, CloudCover, Events, WindDirDegrees
2013-11-1,62,53,44,48,43,37,87,69,39,29.84,29.73,29.63,10,10,10,13,6,20,0.00,1,,243
2013-11-2,55,46,37,43,38,34,87,73,50,30.19,30.00,29.84,10,10,2,13,2,20,0.06,3,Rain,305
2013-11-3,55,44,32,37,31,27,87,64,33,30.33,30.26,30.18,10,8,1,10,1,,0.00,0,,133
2013-11-4,59,50,42,45,38,34,76,61,45,30.29,30.25,30.22,10,10,10,12,6,18,0.00,1,Rain,159
2013-11-5,66,58,50,46,44,43,82,61,45,30.34,30.23,30.11,10,10,7,13,4,20,0.02,4,Rain,156
2013-11-6,60,50,39,52,45,36,88,78,59,30.23,30.09,30.00,10,9,2,17,10,23,0.50,7,Rain,235
2013-11-7,51,42,33,36,30,19,87,65,28,30.38,30.32,30.23,10,10,7,10,3,16,0.00,0,,286
2013-11-8,55,42,28,36,27,19,87,58,25,30.40,30.30,30.17,10,8,2,10,3,,0.00,0,,163
2013-11-9,64,52,41,39,35,28,81,55,32,30.22,30.14,30.09,10,10,4,20,7,28,0.00,0,,212
2013-11-10,55,45,35,39,30,21,81,59,26,30.41,30.34,30.21,10,10,5,7,2,,0.00,0,,346
2013-11-11,62,48,35,43,32,27,87,59,26,30.41,30.24,30.13,10,10,4,18,4,28,0.02,4,Rain,253
2013-11-12,37,30,24,30,19,16,81,61,41,30.71,30.64,30.42,10,10,7,20,12,29,0.00,3,Rain-Snow,350
2013-11-13,42,30,19,21,15,9,86,56,25,30.70,30.57,30.38,10,10,7,12,3,,0.00,0,,189
2013-11-14,57,42,28,21,16,1,69,41,11,30.37,30.24,30.11,10,10,10,16,9,23,0.00,0,,195
2013-11-15,55,47,39,43,30,18,82,52,33,30.14,30.08,30.02,10,10,10,12,7,,0.00,5,Rain,176
2013-11-16,66,56,46,59,51,43,87,76,64,30.02,29.90,29.73,10,9,2,22,10,29,0.00,6,Rain-Thunderstorm,167
2013-11-17,73,68,64,63,60,57,83,79,69,29.72,29.63,29.43,10,10,10,25,17,39,0.00,6,Rain-Thunderstorm,182
2013-11-18,,,,,,,,,,,,,,,,,,,,,,
2013-11-19,,,,,,,,,,,,,,,,,,,,,,
2013-11-20,,,,,,,,,,,,,,,,,,,,,,
2013-11-21,53,50,48,48,46,39,88,82,66,30.23,30.19,30.15,10,5,0,8,3,,0.47,8,Rain,160
2013-11-22,51,44,37,48,39,28,88,79,70,30.48,30.35,30.18,10,7,0,18,5,24,0.05,8,Fog-Rain,344
2013-11-23,37,29,21,28,18,7,86,59,41,30.69,30.57,30.47,10,10,10,20,8,26,0.00,2,,343
2013-11-24,30,24,17,16,8,1,69,53,31,30.76,30.64,30.48,10,10,10,9,5,,0.00,0,,14
2013-11-25,37,32,26,27,19,14,75,59,41,30.47,30.31,30.19,10,10,2,10,4,,0.00,6,Rain-Snow,184
2013-11-26,42,33,24,27,21,7,80,59,42,30.20,30.10,30.00,10,10,10,18,4,26,0.00,6,,339
2013-11-27,28,22,17,12,5,-2,79,47,29,30.35,30.27,30.15,10,10,10,15,8,21,0.00,0,,325
2013-11-28,42,30,17,19,14,10,80,56,29,30.49,30.36,30.28,10,10,10,20,4,24,0.00,0,,206
2013-11-29,44,34,24,21,20,16,80,57,37,30.62,30.53,30.43,10,10,7,7,3,,0.00,0,,63
2013-11-30,55,42,30,28,22,16,70,47,21,30.43,30.28,30.15,10,10,10,16,4,20,0.00,0,,188